STARLINK-11289, 60991

Orbit data source: Space-Track

STARLINK-11289, 60991 is a payload satellite owned by SpaceX/Seattle (US) in LEO that was launched on Thu, 05 Sep 2024 UTC via an FALCON 9 launch vehicle from the Air Force Eastern Test Range (AFETR). Payload-class satellites include a variety of spacecraft equipped with specific instruments for various scientific and technological missions. These include communications satellites like Starlink; space stations such as the ISS; scientific satellites like the Hubble; Earth observation satellites from companies like Planet Labs, Umbra, and HawkEye 360; GPS; miniature CubeSats for education and research; and military/defense satellites.

Loading next visibility...
Identifier
60991, 2024-158B
Orbit
LEO
Country
Flag of USUS
Related business
Manufacturer
SpaceX/Seattle
Mission
Operational Commercial Communications
Bus & Motor
STARLINK V2M, Unknown motor
Mass
730 kg wet, ~700 kg dry
Launch date (UTC)
2024-09-05 (1 year ago)
Launch vehicle
FALCON 9
Launch site
Air Force Eastern Test Range (AFETR)
Object type
Payload
Rocket body
Debris
Shape & HBR
Box + 2 Pan, 14.5 m
Radar Cross Section
36.964 m², Large (>1 m²)

Expand to show TLE details & history
Last TLE update: 17 hours ago

TLE from 17 hours ago
0 STARLINK-11289
1 60991U 24158B   25242.02041951 -.00000131  00000-0  37786-5 0  9994
2 60991  53.1593 145.9216 0001134 111.5122 248.6017 15.69708538 57498
Epoch: 2025-08-30T00:29Z
TLE epoch observation values (Epoch: 2025-08-30T00:29:24.245Z)
Latitude
-0.00002°
Longitude
160.10985°
Altitude
360.925 km
Speed
7.694 km/s
True Right ascension
09h 43m 41s
True Declination
0° 00' 00"
Sunlit
Object was in daylight at epoch
Visualization orbit readout
Latitude
Unknown
Longitude
Unknown
Altitude
Unknown
Speed
Unknown
Apparent Right ascension
Unknown
Apparent Declination
Unknown
Sunlit
N/A
Visualization observer readout
Local Sidereal Time
09:23:35
Azimuth
Unknown
Elevation
Unknown
Doppler factor
Unknown
Orbital elements
Apogee altitude
360.756 km
Perigee altitude
359.228 km
Semi-major axis
6,738.129 km
Eccentricity
0.00011
Inclination
53.1593°
RAAN
145.9216°
Arg. of periapsis
111.5122°
True anomaly
248.5896°
Mean anomaly
248.6017°
Eccentric anomaly
248.59565°
Mean motion
3.92405 °/min
Orbital period
91.74 mins
BSTAR
0.0000037786
Loading maneuver chart data...
Computing Atmospheric mass density...
Loading historical data...
Loading historical data...
Loading historical data...
Loading historical data...
Loading historical data...
Loading historical data...
Loading historical data...

Documentation

Showing up to 5 results
|